Regional Weather Roundup
Issued by NWS

Home | Current Version | Previous Version | Graphics & Text | Print | Product List | Glossary On
Versions: 1 2 3 4 5 6 7 8 9 10 11 12 13 14 15 16 17 18 19 20 21 22 23 24 25 26 27 28 29 30 31 32 33 34 35 36 37 38 39 40 41 42 43 44 45 46 47 48 49 50
000
ASUS43 KOAX 282202
RWRNE

WEATHER ROUNDUP FOR NEBRASKA
NATIONAL WEATHER SERVICE OMAHA NE
500 PM CDT WED JUN 28 2017

NOTES: SATELLITE DATA IS BEING USED TO AUGMENT CLOUD COVER ABOVE
       12000 FEET.
       "FAIR" INDICATES FEW OR NO CLOUDS BELOW 12,000 FEET WITH NO
       SIGNIFICANT WEATHER AND/OR OBSTRUCTIONS TO VISIBILITY.

  * THESE STATIONS DO NOT REPORT WEATHER SUCH AS RAIN...SNOW OR FOG.

NEZ001>004-019>022-054>056-282300-
NEBRASKA PANHANDLE

CITY           SKY/WX    TMP DP  RH WIND       PRES   REMARKS
SCOTTSBLUFF    MOSUNNY   84  48  28 SE12      29.76F
ALLIANCE       SUNNY     84  48  28 E9        29.77F
CHADRON        PTSUNNY   81  46  29 W7        29.76R
GORDON         FAIR      82  46  27 W3        29.78F
KIMBALL        LGT RAIN  74  43  33 W25G31    29.86F
SIDNEY         MOSUNNY   83  45  26 SE15G22   29.81S
$$

NEZ057>060-069>072-079>082-282300-
SOUTHWEST NEBRASKA

CITY           SKY/WX    TMP DP  RH WIND       PRES   REMARKS
NORTH PLATTE   SUNNY     91  49  23 NW8       29.74F
IMPERIAL       MOSUNNY   91  39  16 N6        29.77F
LEXINGTON      SUNNY     88  54  30 NW5       29.74F
MCCOOK         MOSUNNY   91  48  22 E7        29.73F
OGALLALA       SUNNY     90  43  19 E8        29.76F
$$

NEZ005>010-023>029-035>040-094-282300-
NORTH CENTRAL NEBRASKA

CITY           SKY/WX    TMP DP  RH WIND       PRES   REMARKS
VALENTINE      SUNNY     89  39  17 W14G20    29.73F
AINSWORTH      MOSUNNY   86  52  31 NW9G16    29.74F
BROKEN BOW     SUNNY     89  54  30 NW7       29.73F
O`NEILL        MOSUNNY   88  55  32 W8G16     29.70F
ORD            MOSUNNY   89  51  27 NW10G17   29.69F
THEDFORD       SUNNY     89  50  26 NW6       29.76F
$$

NEZ041-046>049-061>064-073>077-083>087-282300-
SOUTH CENTRAL NEBRASKA

CITY           SKY/WX    TMP DP  RH WIND       PRES   REMARKS
GRAND ISLAND   SUNNY     88  60  38 W7        29.72S
AURORA         SUNNY     86  62  44 NW6       29.71F
HASTINGS       SUNNY     88  56  33 VRB5      29.73F
HEBRON         MOSUNNY   95  65  36 W9        29.67F HX  97
HOLDREGE       SUNNY     86  53  31 NW5       29.74F
KEARNEY *      SUNNY     88  55  33 CALM      29.74F
YORK           SUNNY     86  63  45 W9        29.70F
$$

NEZ011>018-030>034-042>045-282300-
NORTHEAST NEBRASKA

CITY           SKY/WX    TMP DP  RH WIND       PRES   REMARKS
NORFOLK        MOSUNNY   87  58  37 W14       29.65S
ALBION         MOSUNNY   89  54  30 W8        29.69F
BLAIR          SUNNY     88  66  48 W15G21    29.64F HX  90
FREMONT        SUNNY     89  64  43 W16       29.65F
TEKAMAH        SUNNY     91  61  36 W14       29.62F HX  91
WAYNE          PTSUNNY   87  62  42 CALM      29.65F
$$

NEZ050>053-065>068-078-088>093-282300-
SOUTHEAST NEBRASKA

CITY           SKY/WX    TMP DP  RH WIND       PRES   REMARKS
LINCOLN        SUNNY     91  69  48 W17       29.66F HX  96
OMAHA EPPLEY   PTSUNNY   92  67  43 W15G25    29.60F HX  95
BEATRICE       PTSUNNY   90  71  52 SW15      29.66F HX  96
FALLS CITY     LGT RAIN  88  71  57 S25G33    29.64F HX  94
NEBRASKA CITY  CLOUDY    80  75  84 W8        29.65S THUNDER
PLATTSMOUTH    MOSUNNY   88  71  56 W13G18    29.64F HX  94
$$

NEZ044-045-051>053-067-282300-
OMAHA AREA

CITY           SKY/WX    TMP DP  RH WIND       PRES   REMARKS
OMAHA EPPLEY   PTSUNNY   92  67  43 W15G25    29.60F HX  95
BLAIR          SUNNY     88  66  48 W15G21    29.64F HX  90
FREMONT        SUNNY     89  64  43 W16       29.65F
MILLARD        MOSUNNY   91  72  54 W14G23    29.62F HX  98
OFFUTT AFB     SUNNY     90  70  52 W18       29.61F HX  95
PLATTSMOUTH    MOSUNNY   88  71  56 W13G18    29.64F HX  94
WAHOO          FAIR      88  64  45 W13G21    29.65F
$$



USA.gov is the U.S. government's official web portal to all federal, state and local government web resources and services.